Hourly Data Report for March 21, 2019

TORONTO CITY
ONTARIO
Current Station Operator: ECCC - MSC

43°40'00.000" N
79°24'00.000" W
112.50 m
6158355
71508
XTO

Download Data

Hourly Data (March 2019)
Hourly Data Report for March 21, 2019
TIME
LST
Temp Definition
°C
Dew Point Definition
°C
Rel Hum Definition
%
Precip. Amount Definition
mm

Wind Dir Definition
10's deg

Wind Spd Definition
km/h
Visibility Definition
km
Stn Press Definition
kPa
Hmdx Definition


Wind Chill Definition


Weather Definition


00:00 4.9 1.1 77 0.0 LegendMM LegendMM   100.39     LegendNANA
01:00 4.8 0.8 75 0.0 LegendMM LegendMM   100.34     LegendNANA
02:00 5.0 1.3 77 0.0 LegendMM LegendMM   100.31     LegendNANA
03:00 4.4 1.5 82 0.0 LegendMM LegendMM   100.23     LegendNANA
04:00 3.8 1.5 85 0.0 LegendMM LegendMM   100.17     LegendNANA
05:00 3.6 1.3 85 0.0 LegendMM LegendMM   100.14     LegendNANA
06:00 3.2 0.8 84 0.0 LegendMM LegendMM   100.09     LegendNANA
07:00 3.9 0.5 79 0.0 LegendMM LegendMM   100.03     LegendNANA
08:00 4.2 -0.6 71 0.0 LegendMM LegendMM   99.99     LegendNANA
09:00 4.2 -0.2 73 0.0 LegendMM LegendMM   99.94     LegendNANA
10:00 5.1 0.3 71 0.0 LegendMM LegendMM   99.93     LegendNANA
11:00 5.4 0.3 70 0.0 LegendMM LegendMM   99.88     LegendNANA
12:00 6.8 0.2 63 0.0 LegendMM LegendMM   99.83     LegendNANA
13:00 6.1 0.1 65 0.0 LegendMM LegendMM   99.77     LegendNANA
14:00 6.8 0.0 62 0.0 LegendMM LegendMM   99.65     LegendNANA
15:00 7.5 0.3 60 0.0 LegendMM LegendMM   99.57     LegendNANA
16:00 7.2 0.8 64 0.0 LegendMM LegendMM   99.54     LegendNANA
17:00 6.9 0.8 65 0.0 LegendMM LegendMM   99.51     LegendNANA
18:00 6.8 0.8 66 0.0 LegendMM LegendMM   99.50     LegendNANA
19:00 6.2 0.7 68 0.0 LegendMM LegendMM   99.50     LegendNANA
20:00 5.7 0.5 69 0.0 LegendMM LegendMM   99.50     LegendNANA
21:00 6.6 2.3 74 0.0 LegendMM LegendMM   99.44     LegendNANA
22:00 5.9 1.6 74 0.0 LegendMM LegendMM   99.39     LegendNANA
23:00 5.1 1.0 75 0.0 LegendMM LegendMM   99.37     LegendNANA

Notes on Data Quality.

Legend

  • E = Estimated
  • M = Missing
  • NA = Not Available*
  • [empty] = Indicates an unobserved value
Date modified: